Starlink 32411

operational
NORAD ID: 61547 Int'l Des: 2024-184 Owner: SPXS Country: US Constellation: starlink
LEOCIRCULAR

Über Starlink 32411

Beschreibung wird geladen...

Live-Position

3D-Globus wird geladen...

Nächste Überflüge

Höhenverlauf

Altitude vs Time

uPlot chart will show altitude changes over time

Zweizeiliger Elementsatz

1 61547U 24184R 26036.08063186 -.00001728 00000-0 -46231-4 0 9991
2 61547 53.1587 165.4583 0001312 92.1541 267.9610 15.30196889 73512
Epoch: 5. Feb. 2026 • Age: 11 hours

Aktueller Status

Höhe 488.4 km
Geschwindigkeit 7.62 km/s
Subsatellitenpunkt -38.33°S, 161.29°E
Startdatum 15. Okt. 2024
Alter 1.3 years
Typ internet

Technische Details

Klassifizierung Payload
Masse 730.00 kg
Trockenmasse 700.00 kg
Gesamtmasse 730.00 kg
Länge 0.30 m
Durchmesser 4.10 m
Spannweite 29.00 m
Form Box + pan
Hersteller SPXS
Bus-Typ Starlink V2M
Phasenstatus In Orbit
Besitzer/Staat SPXS/US

Große Konstellationen

Loading constellations...